When you browse on this site, cookies collect data to enhance your experience and personalize the content and advertising you see.
Visit our Privacy Policy to learn more. By continuing to use the site, you agree to this use of cookies and data.
  • In Germany
  • List of Countries
  • For 7 days
  • Water Temperature
  • Weather Map
  • Weather Widgets
  • user-avatar
    Login

    Hourly Weather Nuenen

    Today, 23 February, Sunday

    Time Temperature Precipitation Wind Pressure Humidity
    00:00 +8°C° 0.1 mm 6 mps 764 mmHg 80%
    01:00 +8°C° 0.6 mm 6 mps 763 mmHg 83%
    02:00 +8°C° 0.6 mm 6 mps 763 mmHg 85%
    03:00 +6°C° 0.6 mm 7 mps 762 mmHg 88%
    04:00 +7°C° 1.7 mm 6 mps 761 mmHg 89%
    05:00 +7°C° 1.7 mm 6 mps 761 mmHg 91%
    06:00 +7°C° 1.7 mm 6 mps 760 mmHg 92%
    07:00 +9°C° 2.5 mm 8 mps 759 mmHg 90%
    08:00 +9°C° 2.5 mm 10 mps 757 mmHg 88%
    09:00 +10°C° 2.5 mm 12 mps 756 mmHg 85%
    10:00 +12°C° 0.2 mm 12 mps 756 mmHg 83%
    11:00 +12°C° 0.2 mm 13 mps 756 mmHg 81%
    12:00 +12°C° 0.2 mm 13 mps 756 mmHg 78%
    13:00 +12°C° 0.8 mm 12 mps 756 mmHg 80%
    14:00 +10°C° 0.8 mm 12 mps 756 mmHg 82%
    15:00 +11°C° 0.8 mm 11 mps 757 mmHg 85%
    16:00 +8°C° 0.4 mm 10 mps 758 mmHg 80%
    17:00 +7°C° 0.4 mm 8 mps 760 mmHg 75%
    18:00 +5°C° 0.4 mm 7 mps 761 mmHg 70%
    19:00 +4°C° 0 mm 6 mps 762 mmHg 70%
    20:00 +5°C° 0 mm 5 mps 763 mmHg 70%
    21:00 +4°C° 0 mm 4 mps 765 mmHg 70%
    22:00 +4°C° 0 mm 4 mps 765 mmHg 72%
    23:00 +3°C° 0 mm 3 mps 766 mmHg 74%

    Tomorrow, 24 February, Monday

    Time Temperature Precipitation Wind Pressure Humidity
    00:00 +3°C° 0 mm 3 mps 766 mmHg 76%
    01:00 +3°C° 0 mm 3 mps 766 mmHg 77%
    02:00 +3°C° 0 mm 2 mps 766 mmHg 78%
    03:00 +3°C° 0 mm 2 mps 766 mmHg 79%
    04:00 +3°C° 0.1 mm 2 mps 765 mmHg 80%
    05:00 +4°C° 0.1 mm 2 mps 765 mmHg 81%
    06:00 +4°C° 0.1 mm 2 mps 764 mmHg 82%
    07:00 +3°C° 0.2 mm 3 mps 763 mmHg 83%
    08:00 +3°C° 0.2 mm 4 mps 762 mmHg 84%
    09:00 +2°C° 0.2 mm 5 mps 761 mmHg 84%
    10:00 +5°C° 0.2 mm 5 mps 760 mmHg 87%
    11:00 +7°C° 0.2 mm 6 mps 759 mmHg 90%
    12:00 +8°C° 0.2 mm 6 mps 757 mmHg 93%
    13:00 +9°C° 0 mm 7 mps 756 mmHg 89%
    14:00 +9°C° 0 mm 8 mps 755 mmHg 85%
    15:00 +10°C° 0 mm 8 mps 754 mmHg 82%
    16:00 +10°C° 0.2 mm 9 mps 753 mmHg 82%
    17:00 +10°C° 0.2 mm 9 mps 752 mmHg 82%
    18:00 +8°C° 0.2 mm 10 mps 752 mmHg 82%
    19:00 +8°C° 0.7 mm 10 mps 751 mmHg 83%
    20:00 +8°C° 0.7 mm 9 mps 751 mmHg 84%
    21:00 +8°C° 0.7 mm 9 mps 751 mmHg 84%
    22:00 +8°C° 0.1 mm 9 mps 751 mmHg 82%
    23:00 +7°C° 0.1 mm 8 mps 751 mmHg 79%

    Day after tomorrow, 25 February, Tuesday

    Time Temperature Precipitation Wind Pressure Humidity
    00:00 +7°C° 0.1 mm 8 mps 751 mmHg 76%
    01:00 +6°C° 0 mm 8 mps 751 mmHg 74%
    02:00 +5°C° 0 mm 8 mps 751 mmHg 72%
    03:00 +5°C° 0 mm 7 mps 751 mmHg 70%
    04:00 +4°C° 0 mm 7 mps 751 mmHg 71%
    05:00 +4°C° 0 mm 7 mps 751 mmHg 72%
    06:00 +4°C° 0 mm 7 mps 751 mmHg 72%
    07:00 +4°C° 0 mm 7 mps 751 mmHg 70%
    08:00 +4°C° 0 mm 8 mps 750 mmHg 68%
    09:00 +3°C° 0 mm 9 mps 750 mmHg 65%
    10:00 +5°C° 0.1 mm 9 mps 750 mmHg 62%
    11:00 +5°C° 0.1 mm 9 mps 750 mmHg 59%
    12:00 +6°C° 0.1 mm 9 mps 750 mmHg 55%
    13:00 +6°C° 0.2 mm 9 mps 749 mmHg 56%
    14:00 +6°C° 0.2 mm 9 mps 749 mmHg 58%
    15:00 +6°C° 0.2 mm 9 mps 748 mmHg 59%
    16:00 +5°C° 0 mm 7 mps 748 mmHg 63%
    17:00 +5°C° 0 mm 5 mps 747 mmHg 66%
    18:00 +4°C° 0 mm 4 mps 747 mmHg 69%
    19:00 +4°C° 0 mm 4 mps 746 mmHg 72%
    20:00 +4°C° 0 mm 4 mps 746 mmHg 74%
    21:00 +3°C° 0 mm 4 mps 745 mmHg 77%
    22:00 +3°C° 0.1 mm 4 mps 744 mmHg 80%
    23:00 +3°C° 0.1 mm 4 mps 744 mmHg 84%

    26 February, Wednesday

    Time Temperature Precipitation Wind Pressure Humidity
    00:00 +3°C° 0.1 mm 4 mps 743 mmHg 87%
    01:00 +1°C° 1.8 mm 5 mps 742 mmHg 89%
    02:00 +1°C° 1.8 mm 6 mps 742 mmHg 91%
    03:00 -1°C° 1.8 mm 8 mps 742 mmHg 93%
    04:00 -1°C° 0.9 mm 8 mps 742 mmHg 94%
    05:00 -1°C° 0.9 mm 7 mps 742 mmHg 95%
    06:00 -2°C° 0.9 mm 7 mps 742 mmHg 96%
    07:00 -1°C° 0.3 mm 6 mps 743 mmHg 93%
    08:00 +1°C° 0.3 mm 5 mps 744 mmHg 89%
    09:00 +2°C° 0.3 mm 5 mps 744 mmHg 86%
    10:00 +3°C° 0.1 mm 5 mps 746 mmHg 81%
    11:00 +3°C° 0.1 mm 6 mps 747 mmHg 76%
    12:00 +4°C° 0.1 mm 6 mps 748 mmHg 71%
    13:00 +4°C° 0.3 mm 6 mps 749 mmHg 70%
    14:00 +4°C° 0.3 mm 6 mps 750 mmHg 70%
    15:00 +4°C° 0.3 mm 7 mps 750 mmHg 69%
    16:00 +3°C° 0.2 mm 6 mps 751 mmHg 72%
    17:00 +2°C° 0.2 mm 5 mps 752 mmHg 75%
    18:00 +2°C° 0.2 mm 5 mps 753 mmHg 78%
    19:00 +1°C° 0 mm 4 mps 753 mmHg 79%
    20:00 +1°C° 0 mm 4 mps 754 mmHg 81%
    21:00 0°C° 0 mm 4 mps 754 mmHg 83%
    22:00 0°C° 0.1 mm 4 mps 755 mmHg 84%
    23:00 0°C° 0.1 mm 4 mps 755 mmHg 85%

    27 February, Thursday

    Time Temperature Precipitation Wind Pressure Humidity
    00:00 0°C° 0.1 mm 4 mps 755 mmHg 86%
    01:00 0°C° 0.1 mm 4 mps 756 mmHg 87%
    02:00 0°C° 0.1 mm 4 mps 756 mmHg 87%
    03:00 0°C° 0.1 mm 5 mps 756 mmHg 87%
    04:00 0°C° 0 mm 4 mps 756 mmHg 88%
    05:00 -1°C° 0 mm 4 mps 757 mmHg 88%
    06:00 -1°C° 0 mm 4 mps 757 mmHg 88%
    07:00 0°C° 0 mm 5 mps 757 mmHg 83%
    08:00 0°C° 0 mm 5 mps 756 mmHg 79%
    09:00 +1°C° 0 mm 6 mps 756 mmHg 74%
    10:00 +1°C° 0.1 mm 6 mps 755 mmHg 80%
    11:00 0°C° 0.1 mm 7 mps 754 mmHg 85%
    12:00 +1°C° 0.1 mm 8 mps 754 mmHg 91%
    13:00 0°C° 0.8 mm 8 mps 752 mmHg 92%
    14:00 0°C° 0.8 mm 9 mps 751 mmHg 93%
    15:00 0°C° 0.8 mm 9 mps 750 mmHg 95%
    16:00 +1°C° 0.5 mm 9 mps 749 mmHg 93%
    17:00 +2°C° 0.5 mm 8 mps 748 mmHg 92%
    18:00 +5°C° 0.5 mm 7 mps 747 mmHg 91%
    19:00 +5°C° 0.1 mm 7 mps 747 mmHg 90%
    20:00 +6°C° 0.1 mm 7 mps 747 mmHg 89%
    21:00 +8°C° 0.1 mm 7 mps 747 mmHg 88%
    22:00 +6°C° 0 mm 7 mps 748 mmHg 87%
    23:00 +5°C° 0 mm 7 mps 748 mmHg 85%

    28 February, Friday

    Time Temperature Precipitation Wind Pressure Humidity
    00:00 +5°C° 0 mm 7 mps 749 mmHg 84%
    01:00 +4°C° 0 mm 7 mps 749 mmHg 84%
    02:00 +4°C° 0 mm 6 mps 749 mmHg 84%
    03:00 +4°C° 0 mm 6 mps 749 mmHg 84%
    04:00 +4°C° 0 mm 6 mps 749 mmHg 84%
    05:00 +4°C° 0 mm 6 mps 749 mmHg 85%
    06:00 +5°C° 0 mm 5 mps 750 mmHg 85%
    07:00 +5°C° 0.3 mm 5 mps 750 mmHg 86%
    08:00 +5°C° 0.3 mm 5 mps 750 mmHg 86%
    09:00 +5°C° 0.3 mm 5 mps 750 mmHg 87%
    10:00 +5°C° 0.6 mm 4 mps 750 mmHg 89%
    11:00 +5°C° 0.6 mm 3 mps 750 mmHg 91%
    12:00 +6°C° 0.6 mm 2 mps 749 mmHg 93%
    13:00 +7°C° 1.2 mm 3 mps 749 mmHg 93%
    14:00 +7°C° 1.2 mm 4 mps 748 mmHg 94%
    15:00 +7°C° 1.2 mm 5 mps 747 mmHg 94%
    16:00 +8°C° 1.1 mm 6 mps 747 mmHg 92%
    17:00 +8°C° 1.1 mm 7 mps 746 mmHg 89%
    18:00 +8°C° 1.1 mm 9 mps 746 mmHg 87%
    19:00 +8°C° 0.6 mm 9 mps 745 mmHg 85%
    20:00 +8°C° 0.6 mm 9 mps 744 mmHg 84%
    21:00 +8°C° 0.6 mm 9 mps 744 mmHg 82%
    22:00 +8°C° 0.1 mm 9 mps 743 mmHg 80%
    23:00 +9°C° 0.1 mm 8 mps 742 mmHg 79%
    Show more